Location: Laterina
(43.5167°N, 11.7167°E)
Time: 23:11:29
(UTC+00:00)

Cosmos 1125 Rocket - Pass Details

Date: 27 June 2021
Orbit: 757 x 780 km, 74.0° (Epoch: 29 July)

Event Time Altitude Azimuth Distance (km) Brightness Sun altitude
Rises 00:10:58 0° 341° (NNW) 3,250 7.7 -22.0°
Reaches altitude 10° 00:13:23 10° 345° (NNW) 2,323 6.8 -21.9°
Maximum altitude 00:18:38 66° 67° (ENE) 846 3.8 -21.6°
Enters shadow 00:21:12 30° 141° (SE) 1,359 4.5 -21.5°
